Location:  
MeteoStar

Sort by weather type Sort by elevation Sort by visibility Sort from west to east north Sort from north to south Alphabetically Sort from strongest wind speed Sort from lowest to highest pressure Sort from highest to lowest dew point temperature Sort coolest temperatures to warmest Sort warm temperatures to coolest
 Metric

Current Observations for United Kingdom sorted from warmest to coolest

Saint Helena Island11:00ZCloudy69 6491019.5ESE 14 691427
London City Airport10:50ZMostly Cloudy57 3731016.1W 15 5716
Gravesend-Broadness11:00ZNot Avail.56 41251016.2WSW 15 Gusting to 26 569
Bridlington Mrsc11:00ZNot Avail.55 40251009.7WSW 15 Gusting to 33 5549
Northolt10:50ZClear55 39251016.2WSW 17 55124
Brize Norton10:50ZClear55 36201016.2W 10 55288
Shoreham Airport10:50ZPartly Cloudy55 4631017.1SW 20 556
Thorney Island11:00ZNot Avail.54 45201017.9WSW 18 4913
Langdon Bay11:00ZNot Avail.54 42251017.0WSW 13 50383
Shoeburyness11:00ZNot Avail.54 38251016.4WSW 14 506
Pershore11:00ZNot Avail.54 38251015.9W 10 51104
Marham10:50ZPartly Cloudy54 43151014.2WSW 17 4975
Holbeach10:50ZPartly Cloudy54 41251013.1W 19 499
Coningsby Royal Air Force Base10:50ZPartly Cloudy54 37251012.1W 18 4922
Fairford Royal Air Force Base10:40ZLight Rain54 3941016.4WSW 15 Gusting to 27 50285
Manston11:00ZNot Avail.54 40181017W 14 50180
Benson10:50ZMostly Cloudy54 36201016.2WSW 13 50206
Exeter Airport10:50ZClear54 41301018.2W 11 Gusting to 21 5198
Cranfield10:50ZPartly Cloudy54 41301015.2WSW 14 50364
Cambridge10:50ZPartly Cloudy54 37301015.1W 14 Gusting to 24 5049
Boulmer10:50ZMostly Cloudy54 37251006.1WSW 20 4975
Aberdeen / Dyce10:50ZPartly Cloudy54 37251001.2W 13 50213
Pembrey Sands10:50ZPartly Cloudy54 43131017.1W 18 499
Humberside10:50ZShowers nearby54 3961011.2WSW 19 49101
Lydd Airport 10:50ZPartly Cloudy54 45201017.1SW 21 499
Southend-On-Sea 10:50ZPartly Cloudy54 36201016.1WSW 15 5049
London / Gatwick Airport10:50ZPartly Cloudy54 4131017.2WSW 10 51203
Jersey Airport10:50ZClear54 4631021.2WSW 14 50275
Guernsey Airport10:50ZShowers nearby54 45201021.2WSW 15 50334
Alderney / Channel Island10:50ZClear54 N/A51020.2WSW 12 232
Southampton / Weather Centre10:50ZShowers nearby54 3751017.1W 11 5129
Bournemouth Airport10:50ZShowers54 4151018.1WSW 13 5036
Scilly; Saint MaryS10:50ZClear54 45201020.1WSW 14 50101
Liverpool Airport 10:50ZPartly Cloudy54 39151013.1W 19 4985
Chivenor11:00ZNot Avail.54 44131018.4W 17 4926
Staverton Private 10:50ZPartly Cloudy54 4151015.1WSW 12 Gusting to 22 5095
Isle Of Portland11:00ZNot Avail.53 4681019WSW 16 48173
Dunkeswell Aerodrome11:00ZClear53 39201018W 11 Gusting to 22 49826
Milford Haven11:00ZNot Avail.53 43181017.2W 13 49144
Donna Nook11:00ZNot Avail.53 37251011.7WSW 17 Gusting to 31 4826
Rhyl11:00ZNot Avail.53 40251013.2W 15 Gusting to 27 48252
Inverbervie11:00ZNot Avail.53 39201001.7WSW 21 Gusting to 29 47439
Aboyne11:00ZNot Avail.53 35251001.5W 14 49459
Wainfleet11:00ZNot Avail.53 42201012.9W 17 Gusting to 27 489
Mildenhall Royal Air Force Base10:56ZCloudy53 44181014.5WSW 17 Gusting to 25 4832
Lakenheath Royal Air Force Base10:56ZMostly Cloudy53 38131014.5W 20 Gusting to 24 4832
Herstmonceux11:00ZNot Avail.52 41101017.9W 9 49170
Saint Catherines Point11:00ZNot Avail.52 4681018.5W 18 4752
Cardinham11:00ZNot Avail.52 42201018.9W 13 48656
Larkhill11:00ZMostly Cloudy52 37251017.5WSW 13 Gusting to 25 48433
High Wicombe Hqstc11:00ZNot Avail.52 39251016W 8 Gusting to 19 49669
Weybourne11:00ZNot Avail.52 40301013.2WSW 21 Gusting to 31 4668
Loftus Samos11:00ZNot Avail.52 40251008WSW 20 Gusting to 36 46190
Cranwell10:50ZClear52 37251013.2WSW 21 46219
Waddington10:50ZPartly Cloudy52 36301012.2WSW 17 47223
Leconfield10:50ZClear52 4171010.1WSW 18 Gusting to 30 4719
Odiham10:50ZLight Showers52 39201017.3W 12 48403
Wattisham10:50ZPartly Cloudy52 32251015.3W 17 47285
Stansted Airport10:50ZMostly Cloudy52 36301016.3W 13 48347
Norwich Weather Centre10:50ZPartly Cloudy52 41301014.1W 16 4745
Lossiemouth10:50ZMostly Cloudy52 41301001.1W 20 4642
Leuchars10:50ZShowers52 3771003.1W 21 4639
Kinloss10:50ZMostly Cloudy52 39401001.1WSW 18 4722
Dundee / Riverside10:50ZClear52 43251003.1WSW 19 4613
Edinburgh Airport10:50ZPartly Cloudy52 41251005.2WSW 19 Gusting to 29 46134
Glasgow Airport10:50ZMostly Cloudy52 43251006.1WSW 18 4726
Shawbury10:50ZPartly Cloudy52 37201014.2W 16 47249
Tees-Side10:50ZPartly Cloudy52 37201009.2WSW 20 46121
Hawarden10:50ZPartly Cloudy52 3751013.1WSW 15 4732
Blackpool Airport10:50ZClear52 4561012.1WSW 23 4632
London / Heathrow Airport10:50ZClear52 45201017.1WSW 14 4778
Farnborough10:50ZShowers nearby52 45181017.2W 10 49213
Biggin Hill 10:50ZShowers nearby52 3731016.3SW 11 48600
Luton Airport 10:50ZMostly Cloudy52 37151015.3W 15 47524
Cardiff-Wales Airport10:50ZPartly Cloudy52 45151017.2W 16 47219
Yeovilton10:50ZPartly Cloudy52 43151018.1WSW 14 4775
St Athan Royal Air Force Base10:50ZPartly Cloudy52 43151017.2W 13 48164
Culdrose10:50ZClear52 43151019.2WSW 10 49255
Lyneham11:00ZNot Avail.52 39131016.7W 15 Gusting to 25 47475
Plymouth11:00ZLight Showers52 45171019.4SW 13 48164
Manchester Airport10:50ZMostly Cloudy52 3751013.2W 17 47226
Eglinton / Londonderr10:50ZShowers nearby52 4551009.1W 14 4729
Camborne11:00ZMostly Cloudy51 4391019.7W 13 46285
Liscombe11:00ZNot Avail.51 44101017.5W 13 Gusting to 25 461141
Little Rissington11:00ZNot Avail.51 37251015.5W 15 46705
Mumbles11:00ZNot Avail.51 43181017.7WSW 21 Gusting to 27 45114
Church Lawford11:00ZClear51 39201014.7W 12 47351
Shobdon11:00ZNot Avail.51 37191015.5W 12 47324
Nottingham Weather Centre11:00ZClear51 40401013.5W 12 47383
Charterhall11:00ZClear51 39161005.4WSW 17 Gusting to 29 45367
Strathallan11:00ZClear51 40201004.4SW 15 46114
Aviemore11:00ZNot Avail.51 40201002.0SW 8 Gusting to 20 48721
Walney Island11:00ZHaze51 4451011.2WSW 18 Gusting to 27 4549
Boscombe Down11:00ZPartly Cloudy51 40201017.7W 12 Gusting to 31 47406
Glenanne11:00ZClear50 43201010.0W 11 46528
Sennybridge11:00ZNot Avail.50 38301015.7WSW 15 451007
Crosby11:00ZNot Avail.50 41131013.0WSW 22 Gusting to 28 4326
South Uist Range11:00ZClear50 45121004W 15 Gusting to 26 4532
Topcliffe Royal Air Force Base 10:50ZMostly Cloudy50 37301010.2WSW 18 4491
Leeming10:50ZMostly Cloudy50 37151009.2WSW 18 44131
Benbecula11:20ZPartly Cloudy50 43251004.1WNW 15 4519
Inverness / Dalcross10:50ZShowers nearby50 45251002.1WSW 18 4429
Kirkwall Airport10:50ZShowers nearby50 4325999.1W 15 4568
Valley10:50ZMostly Cloudy50 41201013.1SW 20 443
East Midlands10:50ZMostly Cloudy50 39201013.2W 17 44308
Isle Of Man / Ronaldsway Airport10:50ZMostly Cloudy50 41201011.1WSW 18 Gusting to 28 4455
Bristol / Lulsgate 10:50ZPartly Cloudy50 39151017.4W 18 44620
Birmingham / Airport10:50ZShowers nearby50 4151014.3WSW 11 46324
Belfast / Harbour10:50ZLight Rain50 4351009.1W 11 4616
Ballypatrick Forest11:00ZClear49 41201008.9NW 16 Gusting to 25 43511
Trawscoed11:00ZNot Avail.49 40121016.2W 15 43206
Redesdale11:00ZNot Avail.49 39201006.7WSW 15 Gusting to 32 43692
Carlisle11:00ZNot Avail.49 41201008.7N 4991
Prestwick Rnas11:00ZClear49 43121007.5WSW 15 4385
Aberporth11:00ZNot Avail.49 38131016.5W 21 Gusting to 27 42436
Machrihanish11:00ZNot Avail.49 44151007.7W 19 4242
Castlederg11:00ZLight Showers48 41101010.5W 12 Gusting to 26 43167
Aberdaron11:00ZNot Avail.48 42151015.7WSW 19 Gusting to 27 41311
Fylingdales11:00ZNot Avail.48 3725SW 24 Gusting to 37 40859
Altnaharra11:00ZClear48 41251000.5WSW 11 43265
Baltasound11:00ZNot Avail.48 4025998.0SSE 10 4449
Linton-On-Ouse10:50ZMostly Cloudy48 4371010.1WSW 16 4252
Wittering10:50ZShowers nearby48 392.751013.2W 17 Gusting to 27 42275
Tiree10:50ZClear48 41121005.1W 18 4139
Stornoway10:50ZShowers nearby48 43251001.1NW 12 4329
Prestwick Airport10:50ZLight Showers48 45251008.1WSW 12 4365
Wick10:50ZShowers nearby48 41131000.2WNW 12 43127
Newcastle 10:50ZShowers nearby48 39201007.2W 16 42265
Capel Curig11:00ZNot Avail.47 38161014.0W 17 Gusting to 29 40708
Warcop Range11:00ZClear47 38301009W 14 Gusting to 25 41744
Keswick11:00ZNot Avail.47 3991010W 14 Gusting to 26 41265
Saint Bees Head11:00ZNot Avail.47 42151010.5W 17 Gusting to 28 40406
Dundrennan11:00ZNot Avail.47 42151008.7WSW 17 Gusting to 29 40374
Aultbea11:00ZClear47 42171002.5WSW 11 4236
Sule Skerry11:00ZNot Avail.47 4112999.5WNW 11 4252
Middle Wallop11:00ZMostly Cloudy47 41151018W 13 Gusting to 26 41298
West Freugh11:00ZLight Showers47 4271009.5W 18 Gusting to 26 4036
Lough Fea11:00ZClear46 42251009.9NW 14 Gusting to 29 40738
Bingley11:00ZNot Avail.46 38161011.4W 12 Gusting to 26 40859
Shap11:00ZNot Avail.46 40181009.5WSW 11 Gusting to 21 41816
Loch Glascanoch11:00ZLight Showers46 4481001.7W 20 Gusting to 28 38869
Fair Isle10:50ZNot Avail.46 4212998.5SW 12 40187
Lerwick11:00ZCloudy46 4020998WSW 9 41269
Sumburgh Cape 10:50ZPartly Cloudy46 4325998.1SW 9 4116
Leeds And Bradford10:50ZLight Showers46 3651010.4W 20 Gusting to 30 38682
Carlisle10:50ZShowers nearby46 4161008.2WSW 19 Gusting to 29 3985
Belfast / Aldergrove Airport10:50ZLight Rain46 4361010.2NW 10 41265
Portglenone11:00ZShowers45 4041009.5W 14 39209
Eskdalemuir11:00ZLight Showers45 4151007.7WSW 14 39793
Drumalbin11:00ZNot Avail.45 42301006.7WSW 23 Gusting to 32 36803
Scatsa / Shetland Island10:50ZClear45 3925998.2WSW 5 4272
Lake Vyrnwy11:00ZNot Avail.44 35251014.5WSW 18 Gusting to 27 361181
Tulloch Bridge11:00ZShowers44 40201004.5WNW 9 39777
Spadeadam11:00ZClear43 4171007.7WSW 24 Gusting to 34 34935
Spadeadam10:50ZMostly Cloudy43 41201006.6WSW 24 341066
Glen Ogle11:00ZNot Avail.39 3420W 23 Gusting to 33 281850
Cairnwell11:00ZNot Avail.36 3120W 25 Gusting to 38 243061
Great Dun Fell11:00ZNot Avail.34 N/A30W 37 Gusting to 46 2778
Cairngorm11:00ZNot Avail.30 3020W 34 Gusting to 48 144084


Atlantic
Tropical Watch